"Pseudo-MPEC" for P10LfOu

Created 2019 Jan 12 21:18:27 UT using Find_Orb

Click here for an explanation of pseudo-MPECs

 
 Astrometry: 
     P10LfOu  C2019 01 09uUlnS-V!e_1*Z2r-jw(N4dgWJ;r$k'K94XI6AstrometryCbG'B3F51
     P10LfOu  C2019 01 09mtkXb/i2%;6pv;/1sX!tDredacted;j+1d]#APx2b:v+!pKw24b+F51
     P10LfOu  C2019 01 09\/QnthKo?#\[=XgC3g:8LLZ1rwY8qYNeBTSHJLK`.Cuf+ZC5`IIrF51
     P10LfOu  C2019 01 09;xP8S]`W01=T5mutcUqx@HhaIsNA^i?h'LLclickA)6STai!6cdFF51
     P10LfOu KC2019 01 10;h#C/bg(*nUV68FCm^\!O@u4]7iA^DD\-`I5kqD!a7H^*C@XLtxGH21
     P10LfOu KC2019 01 10j[WLBruhere1=G0r.Gtm+wjKUScchU;Y4+nE26qa!h.1a=X[0=XTH21
     P10LfOu KC2019 01 10,h!uV`iUrYMZ[;hl_%8Ivp#?8sb2,HOtI$P0n`('3(_/+DhwndmKH21
     P10LfOu  C2019 01 11I!Zr%d\MJ?U7[q@tZ%?gAI8%/7forK'wt\1Gau)5D78oW2*\+,^rF51
     P10LfOu  C2019 01 11Xx-,Z-u:kd:m.Q+XcrbE#H^PPF;(=K:oY!Owb$kSi_!Qk`/TXKS\F51
     P10LfOu  C2019 01 11,T,!IeVR=W.LnexplanationMQ_g;mFfF\:8H))K85aU\nr%ZL%(F51

Station data:
(F51) Pan-STARRS 1, Haleakala  (N20.707235 W156.255910)  US/Hawaii.
   Observers N. Primak, A. Schultz, S. Watters, J. Thiel, T. Goggia. Measurer
   PS1 Science Consortium. 1.8-m Ritchey-Chrétien + CCD.
(H21) Astronomical Research Observatory, Westfield  (N39.483057 W87.968270)
   US/Illinois. 0.76-m f/3.0 astrograph + CCD.

Orbital elements:  P10LfOu
   Perihelion 2019 Aug 28.691757 +/- 18.2 TT = 16:36:07 (JD 2458724.191757)
Epoch 2019 Jan 11.0 TT = JDT 2458494.5   Earth MOID: 0.6300   Ma: 0.0014
M 263.23947823 +/- 12               (J2000 ecliptic)          AutoNEOCP
n   0.42126249 +/- 0.0212           Peri.  253.13383 +/- 5.2
a   1.76238527 +/- 0.059            Node   334.69267 +/- 1.9
e   0.1476149 +/- 0.0457            Incl.   31.50586 +/- 2.1
P   2.34/854.56d           H 20.0   G  0.15   U 10.2  
q 1.50223081 +/- 0.0328    Q 2.02253973 +/- 0.143
From 10 observations 2019 Jan. 9-11; mean residual 0".21
Residuals in arcseconds: 
190109 F51  .22+  .13+    190110 H21  .38-  .01+    190111 F51  .26+  .07+    
190109 F51  .22-  .09-    190110 H21  .17-  .20-    190111 F51  .24-  .16-    
190109 F51  .11+  .12+    190110 H21  .54+  .17+    
190109 F51  .12-  .15-    190111 F51  .02-  .10+    

Ephemerides (geocentric):
Date (UTC) HH   RA              Dec         delta   r     elong  mag " sig PA
---- -- -- --  -------------   -----------  ------ ------ -----  --- ---- ---
2019 01 12 21  09 55 57.507   +53 52 22.80  .97090 1.8261 138.2 22.3 2.46  16
2019 01 12 22  09 55 51.428   +53 52 26.28  .97065 1.8260 138.3 22.3 2.55  16
2019 01 12 23  09 55 45.340   +53 52 29.70  .97039 1.8259 138.3 22.3 2.65  16
2019 01 13 00  09 55 39.243   +53 52 33.07  .97014 1.8259 138.3 22.3 2.75  16
2019 01 13 01  09 55 33.137   +53 52 36.38  .96988 1.8258 138.4 22.3 2.85  16
2019 01 13 02  09 55 27.021   +53 52 39.63  .96963 1.8257 138.4 22.3 2.95  16
2019 01 13 03  09 55 20.897   +53 52 42.83  .96937 1.8256 138.4 22.3 3.05  16
2019 01 13 04  09 55 14.763   +53 52 45.97  .96912 1.8256 138.4 22.3 3.16  16
2019 01 13 05  09 55 08.620   +53 52 49.06  .96886 1.8255 138.5 22.3 3.27  16
2019 01 13 06  09 55 02.468   +53 52 52.09  .96861 1.8254 138.5 22.3 3.37  16
2019 01 13 07  09 54 56.307   +53 52 55.06  .96836 1.8253 138.5 22.3 3.48  16
2019 01 13 08  09 54 50.137   +53 52 57.97  .96810 1.8253 138.5 22.3 3.59  16
2019 01 13 09  09 54 43.958   +53 53 00.83  .96785 1.8252 138.6 22.3 3.71  16
2019 01 13 10  09 54 37.769   +53 53 03.63  .96760 1.8251 138.6 22.3 3.82  16
2019 01 13 11  09 54 31.572   +53 53 06.37  .96735 1.8250 138.6 22.3 3.94  16
2019 01 13 12  09 54 25.365   +53 53 09.06  .96709 1.8250 138.6 22.3 4.06  16
2019 01 13 13  09 54 19.150   +53 53 11.69  .96684 1.8249 138.7 22.3 4.18  16
2019 01 13 14  09 54 12.925   +53 53 14.26  .96659 1.8248 138.7 22.3 4.30  16
2019 01 13 15  09 54 06.692   +53 53 16.77  .96634 1.8247 138.7 22.3 4.42  16
2019 01 13 16  09 54 00.449   +53 53 19.22  .96609 1.8247 138.8 22.3 4.55  16
2019 01 13 17  09 53 54.198   +53 53 21.62  .96584 1.8246 138.8 22.3 4.67  16
2019 01 13 18  09 53 47.938   +53 53 23.95  .96559 1.8245 138.8 22.3 4.80  16
2019 01 13 19  09 53 41.668   +53 53 26.23  .96534 1.8244 138.8 22.3 4.93  16
2019 01 13 20  09 53 35.390   +53 53 28.45  .96509 1.8244 138.9 22.3 5.06  16
2019 01 13 21  09 53 29.103   +53 53 30.61  .96484 1.8243 138.9 22.3 5.20  16
2019 01 13 22  09 53 22.806   +53 53 32.71  .96460 1.8242 138.9 22.3 5.33  16
2019 01 13 23  09 53 16.501   +53 53 34.75  .96435 1.8241 138.9 22.3 5.47  16
2019 01 14 00  09 53 10.187   +53 53 36.73  .96410 1.8241 139.0 22.3 5.61  16
2019 01 14 01  09 53 03.864   +53 53 38.65  .96385 1.8240 139.0 22.3 5.75  16
2019 01 14 02  09 52 57.533   +53 53 40.51  .96361 1.8239 139.0 22.3 5.89  16
2019 01 14 03  09 52 51.192   +53 53 42.31  .96336 1.8238 139.0 22.3 6.03  16
2019 01 14 04  09 52 44.843   +53 53 44.06  .96311 1.8238 139.1 22.3 6.18  16
2019 01 14 05  09 52 38.484   +53 53 45.74  .96287 1.8237 139.1 22.3 6.32  16
2019 01 14 06  09 52 32.117   +53 53 47.36  .96262 1.8236 139.1 22.2 6.47  15
2019 01 14 07  09 52 25.741   +53 53 48.92  .96237 1.8235 139.1 22.2 6.62  15
2019 01 14 08  09 52 19.357   +53 53 50.42  .96213 1.8235 139.2 22.2 6.77  15
2019 01 14 09  09 52 12.963   +53 53 51.86  .96188 1.8234 139.2 22.2 6.93  15
2019 01 14 10  09 52 06.561   +53 53 53.23  .96164 1.8233 139.2 22.2 7.08  15
2019 01 14 11  09 52 00.150   +53 53 54.55  .96140 1.8232 139.2 22.2 7.24  15
2019 01 14 12  09 51 53.730   +53 53 55.80  .96115 1.8232 139.3 22.2 7.40  15
2019 01 14 13  09 51 47.302   +53 53 57.00  .96091 1.8231 139.3 22.2 7.56  15
2019 01 14 14  09 51 40.865   +53 53 58.13  .96067 1.8230 139.3 22.2 7.72  15
2019 01 14 15  09 51 34.419   +53 53 59.20  .96042 1.8229 139.3 22.2 7.88  15
2019 01 14 16  09 51 27.964   +53 54 00.20  .96018 1.8229 139.4 22.2 8.05  15
2019 01 14 17  09 51 21.501   +53 54 01.15  .95994 1.8228 139.4 22.2 8.21  15
2019 01 14 18  09 51 15.029   +53 54 02.03  .95970 1.8227 139.4 22.2 8.38  15
2019 01 14 19  09 51 08.549   +53 54 02.85  .95945 1.8226 139.4 22.2 8.55  15
2019 01 14 20  09 51 02.060   +53 54 03.61  .95921 1.8226 139.5 22.2 8.72  15